This demonstration page uses our WeatherBlox Daily Observations layout. Learn more.

Left ArrowRight Arrow

39.08367, -84.50855

Hourly Observations for April 22, 2022

Temp ( °F °C ) Dew Point ( °F °C ) Humidity (%) Winds ( mph kmh ) Pressure ( in mb ) Visibility ( mi km ) Precip ( " mm )
12:53 am 00:53 Mostly Cloudy with Fog 46 7.8 46 7.8 100 100 N 3 6 30.40 1030 0 0 0.00 0.00
1:34 am 01:34 Mostly Cloudy with Fog 47 8.3 47 8.3 100 100 Calm 30.43 1031 N/A 0.00 0.00
1:42 am 01:42 Mostly Cloudy with Fog 46 7.8 46 7.8 100 100 Calm 30.43 1031 0 0 0.00 0.00
1:50 am 01:50 Mostly Cloudy with Fog 46 8 46 8 100 100 Calm 30.42 1030 N/A 0.00 0.00
1:53 am 01:53 Mostly Cloudy with Fog 47 8.3 47 8.3 100 100 NNE 3 6 30.41 1030 N/A 0.00 0.00
2:15 am 02:15 Mostly Cloudy with Fog 47 8.3 47 8.3 100 100 NNE 3 6 30.42 1030 0 0 0.00 0.00
2:53 am 02:53 Mostly Cloudy with Fog 47 8.3 47 8.3 100 100 NNE 3 6 30.40 1029 0 0 0.00 0.00
3:36 am 03:36 Mostly Cloudy with Fog 47 8.3 47 8.3 100 100 Calm 30.41 1030 N/A 0.00 0.00
3:53 am 03:53 Mostly Cloudy with Fog 47 8.3 47 8.3 100 100 Calm 30.40 1030 0 0 0.00 0.00
4:11 am 04:11 Mostly Cloudy with Fog 47 8.3 47 8.3 100 100 Calm 30.41 1030 N/A 0.00 0.00
4:53 am 04:53 Mostly Cloudy with Fog 47 8.3 47 8.3 100 100 Calm 30.41 1030 0 0 0.00 0.00
5:53 am 05:53 Mostly Cloudy with Fog 47 8.3 47 8.3 100 100 Calm 30.41 1030 0 0 0.00 0.00
6:11 am 06:11 Mostly Cloudy with Fog 46 7.8 46 7.8 100 100 Calm 30.43 1031 0 0 0.00 0.00
6:32 am 06:32 Mostly Cloudy with Fog 46 7.8 46 7.8 100 100 Calm 30.44 1031 0 0 0.00 0.00
6:53 am 06:53 Mostly Cloudy with Fog 46 7.8 46 7.8 100 100 Calm 30.43 1031 0 0 0.00 0.00
7:09 am 07:09 Mostly Cloudy with Fog 46 7.8 46 7.8 100 100 Calm 30.45 1031 N/A 0.00 0.00
7:53 am 07:53 Mostly Cloudy with Fog 47 8.3 47 8.3 100 100 Calm 30.46 1032 0 0 0.00 0.00
8:53 am 08:53 Mostly Cloudy with Fog 50 10 50 10 100 100 WSW 3 6 30.47 1032 0 0 0.00 0.00
9:53 am 09:53 Mostly Cloudy with Mist and Fog 52 11.1 52 11.1 100 100 Calm 30.47 1032 3 4 0.00 0.00
10:07 am 10:07 Mostly Sunny 53 11.7 53 11.7 100 100 Calm 30.47 1032 7 11 0.00 0.00
10:53 am 10:53 Sunny 61 16.1 58 14.4 90 90 Calm 30.46 1031 10 16 0.00 0.00
11:53 am 11:53 Sunny 68 20 53 11.7 59 59 ESE 9 15 30.44 1031 10 16 0.00 0.00
12:53 pm 12:53 Sunny 71 21.7 52 11.1 51 51 SE 7 11 30.41 1030 10 16 0.00 0.00
1:53 pm 13:53 Sunny 73 22.8 51 10.6 46 46 SSE 9 15 30.38 1029 10 16 0.00 0.00
2:53 pm 14:53 Sunny 75 23.9 47 8.3 37 37 ESE 8 13 30.35 1028 10 16 0.00 0.00
3:53 pm 15:53 Sunny 76 24.4 47 8.3 36 36 SSE 12 19 30.31 1026 10 16 0.00 0.00
4:53 pm 16:53 Sunny 77 25 50 10 39 39 S 3 6 30.28 1026 10 16 0.00 0.00
5:53 pm 17:53 Partly Cloudy 77 25 53 11.7 43 43 SSE 3 6 30.27 1025 10 16 0.00 0.00
6:53 pm 18:53 Partly Cloudy 76 24.4 55 12.8 48 48 ESE 6 9 30.24 1024 10 16 0.00 0.00
7:53 pm 19:53 Sunny 73 22.8 54 12.2 51 51 E 5 7 30.24 1024 10 16 0.00 0.00
8:53 pm 20:53 Clear 68 20 54 12.2 61 61 E 6 9 30.24 1024 10 16 0.00 0.00
9:53 pm 21:53 Clear 63 17.2 57 13.9 81 81 Calm 30.24 1024 10 16 0.00 0.00
10:53 pm 22:53 Clear 60 15.6 56 13.3 86 86 Calm 30.22 1023 10 16 0.00 0.00
11:53 pm 23:53 Clear 56 13.3 56 13.3 100 100 Calm 30.20 1023 10 16 0.00 0.00

Powered by AerisWeather